TimeEST,TemperatureF,Dew PointF,Humidity,Sea Level PressureIn,VisibilityMPH,Wind Direction,Wind SpeedMPH,Gust SpeedMPH,PrecipitationIn,Events,Conditions,WindDirDegrees,DateUTC
12:07 AM,39.2,37.4,93,30.04,4.0,NNW,4.6,-,0.01,Rain,Light Rain,340,2012-12-10 05:07:00
12:53 AM,39.9,37.0,89,29.99,3.0,North,4.6,-,0.04,Rain,Light Rain,350,2012-12-10 05:53:00
1:53 AM,39.9,37.0,89,29.97,4.0,Calm,Calm,-,0.02,Rain,Light Rain,0,2012-12-10 06:53:00
2:17 AM,39.2,37.4,93,29.96,2.5,Calm,Calm,-,0.02,Rain,Light Rain,0,2012-12-10 07:17:00
2:26 AM,39.2,37.4,93,29.94,4.0,Calm,Calm,-,0.03,Rain,Light Rain,0,2012-12-10 07:26:00
2:53 AM,39.9,37.0,89,29.93,4.0,Calm,Calm,-,0.03,,Overcast,0,2012-12-10 07:53:00
3:05 AM,39.2,37.4,93,29.93,4.0,Calm,Calm,-,N/A,,Overcast,0,2012-12-10 08:05:00
3:53 AM,39.9,37.0,89,29.88,4.0,Calm,Calm,-,0.00,,Overcast,0,2012-12-10 08:53:00
4:53 AM,39.9,37.0,89,29.84,2.5,Calm,Calm,-,0.00,,Overcast,0,2012-12-10 09:53:00
5:14 AM,39.2,37.4,93,29.84,1.8,Calm,Calm,-,N/A,,Overcast,0,2012-12-10 10:14:00
5:34 AM,39.2,37.4,93,29.83,2.0,Calm,Calm,-,0.01,,Overcast,0,2012-12-10 10:34:00
5:53 AM,39.9,37.9,93,29.81,2.5,Calm,Calm,-,0.01,,Overcast,0,2012-12-10 10:53:00
6:20 AM,39.2,37.4,93,29.81,3.0,Calm,Calm,-,N/A,,Overcast,0,2012-12-10 11:20:00
6:31 AM,39.2,37.4,93,29.81,3.0,Calm,Calm,-,N/A,,Overcast,0,2012-12-10 11:31:00
6:53 AM,39.9,37.9,93,29.79,3.0,Calm,Calm,-,N/A,,Overcast,0,2012-12-10 11:53:00
7:20 AM,39.2,37.4,93,29.79,2.5,Calm,Calm,-,N/A,,Overcast,0,2012-12-10 12:20:00
7:28 AM,41.0,37.4,87,29.79,3.0,Calm,Calm,-,N/A,,Overcast,0,2012-12-10 12:28:00
8:24 AM,41.0,39.2,93,29.77,1.5,Calm,Calm,-,N/A,,Overcast,0,2012-12-10 13:24:00
8:53 AM,42.1,39.9,92,29.76,1.8,Calm,Calm,-,N/A,,Overcast,0,2012-12-10 13:53:00
9:01 AM,42.8,39.2,87,29.76,2.5,Calm,Calm,-,N/A,,Overcast,0,2012-12-10 14:01:00
9:08 AM,42.8,39.2,87,29.76,1.8,Calm,Calm,-,N/A,,Overcast,0,2012-12-10 14:08:00
9:53 AM,43.0,41.0,93,29.75,1.8,Calm,Calm,-,N/A,,Overcast,0,2012-12-10 14:53:00
10:00 AM,44.6,42.8,93,29.75,2.5,Calm,Calm,-,N/A,,Overcast,0,2012-12-10 15:00:00
10:03 AM,44.6,42.8,93,29.75,3.0,Calm,Calm,-,N/A,,Overcast,0,2012-12-10 15:03:00
10:33 AM,44.6,42.8,93,29.74,1.5,North,3.5,-,N/A,,Overcast,350,2012-12-10 15:33:00
10:53 AM,46.0,43.0,89,29.71,1.5,Calm,Calm,-,N/A,,Overcast,0,2012-12-10 15:53:00
11:53 AM,50.0,46.0,86,29.67,1.5,Calm,Calm,-,N/A,,Overcast,0,2012-12-10 16:53:00
12:00 PM,48.2,46.4,93,29.67,5.0,Calm,Calm,-,N/A,,Overcast,0,2012-12-10 17:00:00
12:17 PM,48.2,46.4,93,29.66,2.5,Calm,Calm,-,N/A,,Overcast,0,2012-12-10 17:17:00
12:53 PM,51.1,46.9,86,29.63,3.0,Calm,Calm,-,N/A,,Overcast,0,2012-12-10 17:53:00
1:53 PM,53.1,48.9,86,29.61,10.0,Calm,Calm,-,N/A,,Overcast,0,2012-12-10 18:53:00
2:12 PM,53.6,48.2,82,29.62,10.0,Calm,Calm,-,N/A,,Overcast,0,2012-12-10 19:12:00
2:53 PM,55.0,50.0,83,29.59,10.0,Calm,Calm,-,N/A,,Overcast,0,2012-12-10 19:53:00
3:32 PM,55.4,50.0,82,29.58,10.0,Calm,Calm,-,N/A,,Overcast,0,2012-12-10 20:32:00
3:53 PM,54.0,50.0,86,29.58,10.0,Calm,Calm,-,N/A,,Overcast,0,2012-12-10 20:53:00
4:02 PM,53.6,50.0,88,29.57,10.0,Calm,Calm,-,N/A,,Overcast,0,2012-12-10 21:02:00
4:53 PM,53.1,50.0,89,29.57,9.0,Calm,Calm,-,N/A,,Overcast,0,2012-12-10 21:53:00
5:53 PM,52.0,48.9,89,29.55,4.0,Calm,Calm,-,N/A,,Overcast,0,2012-12-10 22:53:00
6:10 PM,51.8,48.2,88,29.55,5.0,Calm,Calm,-,N/A,,Overcast,0,2012-12-10 23:10:00
6:53 PM,51.1,48.9,92,29.54,4.0,Calm,Calm,-,N/A,,Overcast,0,2012-12-10 23:53:00
7:20 PM,51.8,48.2,88,29.54,5.0,Calm,Calm,-,N/A,,Overcast,0,2012-12-11 00:20:00
7:46 PM,50.0,48.2,94,29.55,2.0,Calm,Calm,-,N/A,,Overcast,0,2012-12-11 00:46:00
7:53 PM,50.0,48.0,93,29.55,1.8,Calm,Calm,-,N/A,,Overcast,0,2012-12-11 00:53:00
7:59 PM,50.0,48.2,94,29.54,3.0,Calm,Calm,-,N/A,,Overcast,0,2012-12-11 00:59:00
8:53 PM,52.0,48.9,89,29.53,5.0,Calm,Calm,-,0.00,Rain,Light Rain,0,2012-12-11 01:53:00
9:11 PM,53.6,51.8,94,29.53,6.0,Calm,Calm,-,0.00,,Overcast,0,2012-12-11 02:11:00
9:53 PM,51.1,48.0,89,29.54,3.0,North,3.5,-,0.00,,Overcast,360,2012-12-11 02:53:00
10:05 PM,50.0,48.2,94,29.55,2.5,North,3.5,-,N/A,,Overcast,350,2012-12-11 03:05:00
10:21 PM,51.8,48.2,88,29.55,3.0,Calm,Calm,-,N/A,,Overcast,0,2012-12-11 03:21:00
10:53 PM,51.1,48.9,92,29.55,2.0,Calm,Calm,-,N/A,,Overcast,0,2012-12-11 03:53:00
11:00 PM,51.8,48.2,88,29.57,1.8,North,9.2,-,N/A,,Overcast,350,2012-12-11 04:00:00
11:05 PM,50.0,46.4,87,29.58,3.0,North,18.4,27.6,N/A,,Overcast,360,2012-12-11 04:05:00
11:19 PM,46.4,39.2,76,29.60,10.0,North,17.3,27.6,N/A,,Overcast,10,2012-12-11 04:19:00
11:53 PM,45.0,39.0,80,29.61,10.0,NNE,11.5,-,0.00,,Overcast,20,2012-12-11 04:53:00